FW0689 Weather Reports


Display with metric or nautical units.
time (UTC)temp
F
wind
direction
speed
MPH
gust
MPH
rain 1hr
in
rain 24hr
in
rain mn
in
humidity
%
barometer
mb
20260502121012 73 220 0.0 0.0 0.00 0.00 0.00 43 1021.5
20260502115010 73 227 0.0 0.0 0.00 0.00 0.00 42 1021.6
20260502114012 73 241 0.0 0.0 0.00 0.00 0.00 42 1021.8
20260502113012 72 248 0.0 0.0 0.00 0.00 0.00 42 1021.8
20260502112012 72 222 0.0 0.0 0.00 0.00 0.00 42 1021.9
20260502111028 72 222 0.0 0.0 0.00 0.00 0.00 42 1021.9
20260502105011 72 189 0.0 0.0 0.00 0.00 0.00 40 1022.0
20260502104109 72 226 0.0 0.0 0.00 0.00 0.00 40 1022.1
20260502103111 71 182 0.0 0.0 0.00 0.00 0.00 40 1022.2
20260502102113 70 204 0.0 0.0 0.00 0.00 0.00 40 1022.4
20260502101211 70 251 0.0 0.0 0.00 0.00 0.00 40 1022.4
20260502100213 70 229 0.0 0.0 0.00 0.00 0.00 39 1022.7
20260502091310 66 235 0.0 0.0 0.00 0.00 0.00 41 1022.9
20260502070813 61 201 0.0 0.0 0.00 0.00 0.00 45 1023.3
20260502065910 60 197 0.0 0.0 0.00 0.00 0.00 44 1023.5
20260502064911 59 196 0.0 0.0 0.00 0.00 0.00 44 1023.5
20260502064011 59 171 0.0 0.0 0.00 0.00 0.00 43 1023.5
20260502063110 58 160 0.0 0.0 0.00 0.00 0.00 42 1023.4
20260502062112 57 152 0.0 0.0 0.00 0.00 0.00 41 1023.5
20260502061211 56 132 0.0 0.0 0.00 0.00 0.00 41 1023.5
20260502060211 54 180 0.0 0.0 0.00 0.00 0.00 40 1023.6
20260502055212 53 114 0.0 0.0 0.00 0.00 0.00 40 1023.7
20260502054212 51 165 0.0 0.0 0.00 0.00 0.00 40 1023.7
20260502053310 50 119 0.0 0.0 0.00 0.00 0.00 40 1023.6
20260502051311 47 112 0.0 0.0 0.00 0.00 0.00 40 1023.5
20260502050311 46 112 0.0 0.0 0.00 0.00 0.00 41 1023.5
20260502044409 46 112 0.0 0.0 0.00 0.00 0.00 41 1023.5
20260502041411 45 112 0.0 0.0 0.00 0.00 0.00 42 1023.5
20260502035411 46 112 0.0 0.0 0.00 0.00 0.00 42 1023.7
20260502034412 46 112 0.0 0.0 0.00 0.00 0.00 42 1023.8
20260502033511 46 112 0.0 0.0 0.00 0.00 0.00 42 1023.8
20260502032511 46 112 0.0 0.0 0.00 0.00 0.00 42 1023.8
20260502031511 46 112 0.0 0.0 0.00 0.00 0.00 42 1023.8
20260502030509 46 112 0.0 0.0 0.00 0.00 0.00 42 1023.9
20260502025512 46 112 0.0 0.0 0.00 0.00 0.00 42 1024.0
20260502024512 46 112 0.0 0.0 0.00 0.00 0.00 42 1024.0
20260502023509 46 112 0.0 0.0 0.00 0.00 0.00 41 1024.0
20260502022511 46 112 0.0 0.0 0.00 0.00 0.00 42 1024.2
20260502021510 46 112 0.0 0.0 0.00 0.00 0.00 42 1024.1
20260502020511 47 112 0.0 0.0 0.00 0.00 0.00 42 1024.1
20260502014512 47 112 0.0 0.0 0.00 0.00 0.00 42 1024.4
20260502013511 47 112 0.0 0.0 0.00 0.00 0.00 42 1024.5
20260502012610 47 112 0.0 0.0 0.00 0.00 0.00 41 1024.6
20260502011612 46 112 0.0 0.0 0.00 0.00 0.00 41 1024.7
20260502010709 46 112 0.0 0.0 0.00 0.00 0.00 42 1024.7
20260502005711 47 112 0.0 0.0 0.00 0.00 0.00 42 1025.0
20260502004810 48 112 0.0 0.0 0.00 0.00 0.00 42 1025.1
20260502003811 48 112 0.0 0.0 0.00 0.00 0.00 41 1025.1
20260502000009 45 112 0.0 0.0 0.00 0.00 0.00 41 1025.4
20260501235012 45 112 0.0 0.0 0.00 0.00 0.00 41 1025.4
20260501234012 47 112 0.0 0.0 0.00 0.00 0.00 40 1025.4
20260501233110 47 112 0.0 0.0 0.00 0.00 0.00 40 1025.5
20260501232111 47 112 0.0 0.0 0.00 0.00 0.00 40 1025.5
20260501231210 46 112 0.0 0.0 0.00 0.00 0.00 41 1025.5
20260501230212 47 112 0.0 0.0 0.00 0.00 0.00 41 1025.7
20260501225211 47 112 0.0 0.0 0.00 0.00 0.00 41 1025.7
20260501224226 48 112 0.0 0.0 0.00 0.00 0.00 41 1025.8
20260501223312 47 112 0.0 0.0 0.00 0.00 0.00 41 1025.8
20260501222410 47 112 0.0 0.0 0.00 0.00 0.00 42 1025.8
20260501221412 48 112 0.0 0.0 0.00 0.00 0.00 43 1025.8
20260501220410 48 112 0.0 0.0 0.00 0.00 0.00 46 1025.9
20260501215410 49 112 0.0 0.0 0.00 0.00 0.00 49 1026.1
20260501214412 49 112 0.0 0.0 0.00 0.00 0.00 51 1026.1
20260501213411 50 112 0.0 0.0 0.00 0.00 0.00 52 1026.1
20260501212410 51 112 0.0 0.0 0.00 0.00 0.00 52 1026.2
20260501210512 53 112 0.0 0.0 0.00 0.00 0.00 52 1026.2
20260501205511 55 112 0.0 0.0 0.00 0.00 0.00 51 1026.3
20260501201611 58 112 0.0 0.0 0.00 0.00 0.00 49 1026.5
20260501200710 58 112 0.0 0.0 0.00 0.00 0.00 50 1026.5
20260501195710 58 112 0.0 0.0 0.00 0.00 0.00 48 1026.6
20260501192810 60 112 0.0 0.0 0.00 0.00 0.00 47 1026.3
20260501185812 63 180 0.0 0.0 0.00 0.00 0.00 44 1026.3
20260501184810 64 112 0.0 0.0 0.00 0.00 0.00 44 1026.3
20260501183811 65 112 0.0 0.0 0.00 0.00 0.00 43 1026.3
20260501182813 66 112 0.0 0.0 0.00 0.00 0.00 42 1026.1
20260501181811 67 112 0.0 0.0 0.00 0.00 0.00 41 1026.1
20260501180910 68 112 0.0 0.0 0.00 0.00 0.00 40 1026.0
20260501175909 69 111 0.0 0.0 0.00 0.00 0.00 37 1025.9
20260501174911 70 112 0.0 0.0 0.00 0.00 0.00 36 1026.1
20260501173909 71 116 0.0 0.0 0.00 0.00 0.00 35 1026.1
20260501172912 71 112 0.0 0.0 0.00 0.00 0.00 34 1026.0
20260501171013 72 111 0.0 0.0 0.00 0.00 0.00 33 1026.1
20260501170110 72 126 0.0 0.0 0.00 0.00 0.00 31 1026.1
20260501165210 72 135 0.0 0.0 0.00 0.00 0.00 32 1026.1
20260501164211 72 137 0.0 0.0 0.00 0.00 0.00 32 1026.3
20260501163309 72 116 0.0 0.0 0.00 0.00 0.00 32 1026.3
20260501162311 73 118 0.0 0.0 0.00 0.00 0.00 31 1026.4
20260501161311 73 114 0.0 0.0 0.00 0.00 0.00 31 1026.5
20260501160328 73 166 0.0 0.0 0.00 0.00 0.00 31 1026.6
20260501155311 73 116 0.0 0.0 0.00 0.00 0.00 31 1026.6
20260501154311 73 132 0.0 0.0 0.00 0.00 0.00 31 1026.7
20260501153310 73 165 0.0 0.0 0.00 0.00 0.00 30 1026.9
20260501152409 73 157 0.0 0.0 0.00 0.00 0.00 31 1027.2
20260501151413 73 119 0.0 0.0 0.00 0.00 0.00 31 1027.3
20260501150510 73 111 0.0 0.0 0.00 0.00 0.00 31 1027.4
20260501145511 73 114 0.0 0.0 0.00 0.00 0.00 31 1027.5
20260501144511 73 167 0.0 0.0 0.00 0.00 0.00 32 1027.6
20260501143510 72 151 0.0 0.0 0.00 0.00 0.00 33 1027.6
20260501142512 72 146 0.0 0.0 0.00 0.00 0.00 33 1027.8
20260501141511 72 109 0.0 0.0 0.00 0.00 0.00 33 1027.9
20260501141425 72 149 0.0 0.0 0.00 0.00 0.00 34 1028.0
20260501134412 72 108 0.0 0.0 0.00 0.00 0.00 34 1028.2
20260501133412 71 136 0.0 0.0 0.00 0.00 0.00 34 1028.6